SCP
0 0 0 0 0 0 0 0 0 0 0 0 0 0 0 0 0 0 0 0 0 0 0 0 0 0 0 0 0 0 0 0 0 0 -0 -0 -0 -0
0 0 0 0 0 0 0 0 0 0 0 0 0 0 0 0 0 0 0 0 0 0 0 0 0 0 0 0 0 0 0 -0 -0 -0 0 0 0 0
0 0 0 0 0 0 0 0 0 0 0 0 0 0 0 0 0 0 0 0 0 0 0 0 0 0 0 0 0 0 -0 -0 -0 0 0 0 0 0
0 0 0 0 0 0 0 0 0 0 0 0 0 0 0 0 0 0 0 0 0 0 0 0 0 0 0 0 0 0 0 0 0 0 0 0 -0 -0
0 0 0 0 0 0 0 0 0 0 0 0 0 0 0 0 0 0 0 0 0 0 0 0 0 0 0 0 0 0 0 -0 -0 -0 -0 -0 -0 -0
0 0 0 0 0 0 0 0 0 0 0 0 0 0 0 0 0 0 0 0 0 0 0 0 0 0 0 0 0 0 -0 -0 -0 -0 -0 -0 -0 -0
0 0 0 0 0 0 0 0 0 0 0 0 0 0 0 0 0 0 0 0 0 0 0 0 0 0 0 0 0 -0 -0 -0 -0 -0 -0 -0 -0 -0
0 0 0 0 0 0 0 0 0 0 0 0 0 0 0 0 0 0 0 0 0 0 0 0 0 0 0 0 0 -0 -0 -0 -0 -0 -0 -0 -0 -0
0 0 0 0 0 0 0 0 0 0 0 0 0 0 0 0 0 0 0 0 0 0 0 0 0 0 0 0 0 -0 -0 -0 -0 -0 -0 -0 -0 -0
0 0 0 0 0 0 0 0 0 0 0 0 0 0 0 0 0 0 0 0 0 0 0 0 0 0 0 0 -0 -0 -0 -0 -0 -0 -0 -0 -0 -0
0 0 0 0 0 0 0 0 0 0 0 0 0 0 0 0 0 0 0 0 0 0 0 0 0 0 0 0 0 0 -0 -0 -0 -0 -0 -0 -0 -0
0 0 0 0 0 0 0 0 0 0 0 0 0 0 0 0 0 0 0 0 0 0 0 0 0 0 0 0 0 0 0 0 -0 -0 -0 -0 -0 0
0 0 0 0 0 0 0 0 0 0 0 0 0 0 0 0 0 0 0 0 0 0 0 0 0 0 0 0 0 0 0 0 0 0 -0 -0 -0 0
0 0 0 0 0 0 0 0 0 0 0 0 0 0 0 0 0 0 0 0 0 0 0 0 0 0 0 0 0 0 0 0 0 0 0 0 0 0
0 0 0 0 0 0 0 0 0 0 0 0 0 0 0 0 0 0 0 0 0 0 0 0 0 0 0 0 0 0 0 0 0 0 0 0 0 0
0 0 0 0 0 0 0 0 0 0 0 0 0 0 0 0 0 0 0 0 0 0 0 0 0 0 0 0 0 0 0 0 0 0 0 0 0 0
0 0 0 0 0 0 0 0 0 0 0 0 0 0 0 0 0 0 0 0 0 0 0 0 0 0 0 0 0 0 0 0 0 0 0 0 0 0
0 0 0 0 0 0 0 0 0 0 0 0 0 0 0 0 0 0 0 0 0 0 0 0 0 0 0 0 0 0 0 0 0 0 0 0 0 0
0 0 0 0 0 0 0 0 0 0 0 0 0 0 0 0 0 0 0 0 0 0 0 0 0 0 0 0 0 0 0 0 0 0 0 0 0 0
0 0 0 0 0 0 0 0 0 0 0 0 0 0 0 0 0 0 0 0 0 0 0 0 0 0 0 0 0 0 0 0 0 0 0 0 0 0
0 0 0 0 0 0 0 0 0 0 0 0 0 0 0 0 0 0 0 0 0 0 0 0 0 0 0 0 0 0 0 0 0 0 0 0 0 0
0 0 0 0 0 0 0 0 0 0 0 0 0 0 0 0 0 0 0 0 0 0 0 0 0 0 0 0 0 0 0 0 0 0 0 0 0 0
0 0 0 0 0 0 0 0 0 0 0 0 0 0 0 0 0 0 0 0 0 0 0 0 0 0 0 0 0 0 0 0 0 0 0 0 0 0
Wind_Speed_500mb
20 26 30 34 39 45 50 55 63 74 93 64 92 97 101 100 97 96 95 92 89 81 74 72 72 74 76 75 74 72 69 66 63 68 79 82 78 69
23 28 32 36 39 43 46 50 54 61 66 92 95 96 96 96 94 94 91 91 85 79 72 71 76 73 70 68 66 63 61 56 55 50 44 55 50 41
25 29 33 35 37 42 47 54 57 61 77 90 89 89 91 94 96 91 90 88 84 73 68 68 66 70 67 56 48 52 47 23 23 42 58 53 54 56
26 27 29 33 39 46 53 59 64 64 69 85 88 88 85 86 85 87 89 81 74 66 66 63 60 59 59 49 30 61 49 50 49 56 60 59 58 56
24 26 31 37 44 50 55 61 63 64 66 70 81 77 80 78 84 83 81 74 62 64 60 54 46 49 56 59 52 56 60 58 55 54 57 58 55 54
21 28 36 44 50 55 59 61 64 64 60 59 68 72 71 72 70 77 81 68 61 63 48 35 48 47 50 54 56 55 54 56 53 51 51 51 52 56
24 32 40 47 53 57 61 60 60 59 54 55 62 63 67 67 67 66 64 55 48 49 31 30 39 42 51 53 52 52 51 49 48 47 47 49 49 58
27 35 42 46 51 56 57 57 54 52 51 48 50 55 54 52 53 54 53 52 53 29 25 28 29 33 38 44 43 45 46 46 47 48 47 49 51 53
30 36 40 46 51 55 56 54 54 45 35 40 41 44 43 41 46 45 38 33 35 13 11 15 17 24 29 37 39 39 39 38 39 43 47 48 48 48
33 39 43 48 52 56 56 54 48 41 37 37 40 39 36 33 34 37 32 26 21 7 5 2 8 17 22 28 28 35 40 38 36 37 38 38 39 44
37 42 46 50 56 58 55 53 50 43 34 32 36 33 30 25 25 28 21 18 13 5 9 12 15 18 24 23 24 27 29 31 39 35 32 33 35 36
37 42 48 54 59 58 56 58 54 43 39 35 36 26 22 17 21 27 24 18 20 14 16 21 24 25 19 20 29 22 24 25 28 31 34 30 32 32
40 42 46 54 57 57 55 52 51 40 37 37 38 25 19 16 19 23 22 20 18 16 20 20 25 26 28 30 27 21 21 20 23 24 26 29 29 29
43 45 49 53 55 53 51 51 45 35 37 37 34 26 21 19 20 22 23 23 24 20 18 19 25 29 29 27 20 20 16 17 19 19 20 22 22 25
44 46 51 52 51 49 46 43 39 39 38 39 33 26 21 22 21 24 25 25 27 26 24 23 22 22 20 21 22 17 13 13 14 14 14 15 16 19
46 48 51 53 52 49 45 40 37 36 41 39 32 29 26 26 26 27 28 28 30 28 27 24 21 20 18 15 14 13 11 9 12 11 11 12 14 14
50 48 48 52 55 54 50 40 34 35 37 34 33 31 31 31 30 30 31 29 28 29 26 25 21 16 13 11 12 12 12 11 10 10 10 9 10 11
50 51 51 53 54 55 53 51 38 29 32 35 33 32 31 34 35 35 34 32 30 30 25 24 23 18 16 16 16 15 14 13 13 12 11 11 11 11
47 48 50 51 52 51 50 48 47 37 32 33 35 36 33 35 39 41 39 35 33 32 26 26 27 25 26 25 23 19 18 16 16 16 15 13 15 14
47 47 47 47 47 49 48 47 46 42 38 37 37 39 38 36 42 45 43 39 36 34 30 29 29 29 27 26 22 21 19 20 19 19 18 16 17 18
45 43 45 45 45 46 47 47 47 45 44 44 43 42 40 40 44 44 43 41 39 38 35 31 30 30 28 27 26 23 22 21 21 21 20 20 20 20
46 42 41 41 43 44 46 47 48 44 45 45 46 46 47 44 42 42 44 41 38 37 36 33 33 32 31 29 29 27 26 25 25 26 23 20 20 15
44 41 39 41 42 43 45 45 46 46 44 46 45 45 46 45 40 41 42 40 37 39 37 36 34 34 32 31 31 30 28 27 27 28 25 24 23 23
Wind_Direction_500mb
330 332 336 337 336 337 337 336 334 327 329 336 328 332 337 339 341 342 343 343 342 341 334 330 328 323 316 313 312 309 305 308 310 306 295 292 289 294
332 336 335 336 337 336 338 336 331 323 314 323 327 330 334 337 341 342 345 346 347 346 339 334 330 326 325 320 318 316 309 304 308 315 12 67 58 50
334 332 333 335 338 339 337 334 331 325 318 319 324 331 335 340 341 344 350 351 353 352 348 340 341 341 343 340 339 339 326 341 11 64 57 60 64 60
331 331 333 337 338 337 337 334 330 326 321 321 328 335 339 341 343 348 353 358 357 357 354 352 356 20 9 16 34 55 82 82 77 68 63 61 63 54
325 330 334 333 335 336 335 332 328 329 328 326 327 335 339 345 346 353 357 359 2 5 3 11 27 45 46 55 59 52 52 51 48 45 46 44 47 51
325 328 332 333 334 334 334 332 333 333 331 330 329 334 340 343 350 352 357 9 12 12 23 48 71 55 48 44 41 40 39 38 40 40 46 49 51 50
323 328 329 331 332 333 334 334 333 334 329 329 333 332 335 344 350 357 358 10 18 18 48 68 65 61 48 40 34 31 32 37 39 43 46 48 51 53
323 327 329 329 331 331 330 331 332 334 329 328 326 328 332 341 349 357 355 4 9 35 79 75 64 51 46 39 33 32 36 39 41 42 43 44 46 49
320 324 325 328 329 330 330 333 333 334 328 319 318 323 329 341 347 350 356 1 357 28 91 75 43 43 33 37 31 27 29 34 38 41 45 44 45 47
320 324 326 328 330 333 332 327 328 331 335 325 317 323 328 334 344 345 344 355 348 343 234 47 19 19 15 14 22 35 29 27 28 30 30 35 39 44
317 323 327 330 332 335 333 328 325 329 330 314 308 313 313 325 338 347 337 342 346 300 238 297 299 330 334 344 1 12 16 24 34 27 33 38 40 37
314 322 327 329 332 335 333 330 325 325 322 313 305 299 298 314 334 338 336 332 330 311 283 288 275 310 324 323 338 344 359 9 17 34 35 39 40 39
312 320 324 327 329 332 333 330 324 315 306 300 306 305 288 301 323 322 320 322 327 314 301 291 290 297 308 311 321 328 346 0 10 18 24 31 34 38
313 319 322 324 328 330 330 328 320 305 298 299 301 306 280 284 303 303 307 313 322 327 324 308 294 296 304 307 311 317 332 350 3 13 22 29 29 31
310 316 318 321 327 330 328 325 314 307 300 297 299 304 286 287 290 291 297 304 309 318 323 318 309 302 300 299 303 303 307 333 352 4 15 23 27 32
311 316 319 323 325 323 326 323 310 296 294 296 291 288 280 285 287 288 290 299 303 312 310 313 310 303 300 300 291 288 297 312 332 347 353 8 16 17
309 312 316 318 322 323 323 319 308 289 291 287 278 279 271 277 281 286 279 287 291 302 301 303 306 308 304 297 293 287 288 301 314 327 331 338 351 354
307 312 316 318 319 319 319 316 314 298 287 282 273 270 277 275 279 282 276 280 280 292 289 289 289 291 293 293 293 287 282 289 296 301 307 314 319 327
307 311 314 316 315 313 313 312 312 309 295 284 279 268 271 278 276 277 276 272 270 281 280 283 280 277 282 286 288 281 272 279 282 285 292 301 306 307
305 310 311 309 308 309 311 312 310 305 290 280 277 273 267 273 278 275 270 265 262 270 273 277 278 276 277 279 274 280 280 274 274 279 287 292 293 296
302 306 307 308 309 309 308 308 307 305 298 289 279 276 268 269 275 272 264 259 258 262 267 271 273 272 271 273 270 275 275 271 275 280 284 287 287 289
301 304 305 308 309 309 309 309 307 304 297 289 284 280 275 269 266 263 257 252 258 262 263 260 270 268 267 268 268 269 273 273 274 277 279 277 282 282
298 303 307 309 308 309 308 306 305 303 297 291 286 281 278 271 264 259 249 247 253 259 260 257 259 263 265 265 265 268 269 270 271 274 277 281 283 286
Wind_Speed_850mb
20 26 30 34 39 45 50 55 63 74 93 64 92 97 101 100 97 96 95 92 89 81 74 72 72 74 76 75 74 72 69 66 63 68 79 82 78 69
23 28 32 36 39 43 46 50 54 61 66 92 95 96 96 96 94 94 91 91 85 79 72 71 76 73 70 68 66 63 61 56 55 50 44 55 50 41
25 29 33 35 37 42 47 54 57 61 77 90 89 89 91 94 96 91 90 88 84 73 68 68 66 70 67 56 48 52 47 23 23 42 58 53 54 56
26 27 29 33 39 46 53 59 64 64 69 85 88 88 85 86 85 87 89 81 74 66 66 63 60 59 59 49 30 61 49 50 49 56 60 59 58 56
24 26 31 37 44 50 55 61 63 64 66 70 81 77 80 78 84 83 81 74 62 64 60 54 46 49 56 59 52 56 60 58 55 54 57 58 55 54
21 28 36 44 50 55 59 61 64 64 60 59 68 72 71 72 70 77 81 68 61 63 48 35 48 47 50 54 56 55 54 56 53 51 51 51 52 56
24 32 40 47 53 57 61 60 60 59 54 55 62 63 67 67 67 66 64 55 48 49 31 30 39 42 51 53 52 52 51 49 48 47 47 49 49 58
27 35 42 46 51 56 57 57 54 52 51 48 50 55 54 52 53 54 53 52 53 29 25 28 29 33 38 44 43 45 46 46 47 48 47 49 51 53
30 36 40 46 51 55 56 54 54 45 35 40 41 44 43 41 46 45 38 33 35 13 11 15 17 24 29 37 39 39 39 38 39 43 47 48 48 48
33 39 43 48 52 56 56 54 48 41 37 37 40 39 36 33 34 37 32 26 21 7 5 2 8 17 22 28 28 35 40 38 36 37 38 38 39 44
37 42 46 50 56 58 55 53 50 43 34 32 36 33 30 25 25 28 21 18 13 5 9 12 15 18 24 23 24 27 29 31 39 35 32 33 35 36
37 42 48 54 59 58 56 58 54 43 39 35 36 26 22 17 21 27 24 18 20 14 16 21 24 25 19 20 29 22 24 25 28 31 34 30 32 32
40 42 46 54 57 57 55 52 51 40 37 37 38 25 19 16 19 23 22 20 18 16 20 20 25 26 28 30 27 21 21 20 23 24 26 29 29 29
43 45 49 53 55 53 51 51 45 35 37 37 34 26 21 19 20 22 23 23 24 20 18 19 25 29 29 27 20 20 16 17 19 19 20 22 22 25
44 46 51 52 51 49 46 43 39 39 38 39 33 26 21 22 21 24 25 25 27 26 24 23 22 22 20 21 22 17 13 13 14 14 14 15 16 19
46 48 51 53 52 49 45 40 37 36 41 39 32 29 26 26 26 27 28 28 30 28 27 24 21 20 18 15 14 13 11 9 12 11 11 12 14 14
50 48 48 52 55 54 50 40 34 35 37 34 33 31 31 31 30 30 31 29 28 29 26 25 21 16 13 11 12 12 12 11 10 10 10 9 10 11
50 51 51 53 54 55 53 51 38 29 32 35 33 32 31 34 35 35 34 32 30 30 25 24 23 18 16 16 16 15 14 13 13 12 11 11 11 11
47 48 50 51 52 51 50 48 47 37 32 33 35 36 33 35 39 41 39 35 33 32 26 26 27 25 26 25 23 19 18 16 16 16 15 13 15 14
47 47 47 47 47 49 48 47 46 42 38 37 37 39 38 36 42 45 43 39 36 34 30 29 29 29 27 26 22 21 19 20 19 19 18 16 17 18
45 43 45 45 45 46 47 47 47 45 44 44 43 42 40 40 44 44 43 41 39 38 35 31 30 30 28 27 26 23 22 21 21 21 20 20 20 20
46 42 41 41 43 44 46 47 48 44 45 45 46 46 47 44 42 42 44 41 38 37 36 33 33 32 31 29 29 27 26 25 25 26 23 20 20 15
44 41 39 41 42 43 45 45 46 46 44 46 45 45 46 45 40 41 42 40 37 39 37 36 34 34 32 31 31 30 28 27 27 28 25 24 23 23
Wind_Direction_850mb
330 332 336 337 336 337 337 336 334 327 329 336 328 332 337 339 341 342 343 343 342 341 334 330 328 323 316 313 312 309 305 308 310 306 295 292 289 294
332 336 335 336 337 336 338 336 331 323 314 323 327 330 334 337 341 342 345 346 347 346 339 334 330 326 325 320 318 316 309 304 308 315 12 67 58 50
334 332 333 335 338 339 337 334 331 325 318 319 324 331 335 340 341 344 350 351 353 352 348 340 341 341 343 340 339 339 326 341 11 64 57 60 64 60
331 331 333 337 338 337 337 334 330 326 321 321 328 335 339 341 343 348 353 358 357 357 354 352 356 20 9 16 34 55 82 82 77 68 63 61 63 54
325 330 334 333 335 336 335 332 328 329 328 326 327 335 339 345 346 353 357 359 2 5 3 11 27 45 46 55 59 52 52 51 48 45 46 44 47 51
325 328 332 333 334 334 334 332 333 333 331 330 329 334 340 343 350 352 357 9 12 12 23 48 71 55 48 44 41 40 39 38 40 40 46 49 51 50
323 328 329 331 332 333 334 334 333 334 329 329 333 332 335 344 350 357 358 10 18 18 48 68 65 61 48 40 34 31 32 37 39 43 46 48 51 53
323 327 329 329 331 331 330 331 332 334 329 328 326 328 332 341 349 357 355 4 9 35 79 75 64 51 46 39 33 32 36 39 41 42 43 44 46 49
320 324 325 328 329 330 330 333 333 334 328 319 318 323 329 341 347 350 356 1 357 28 91 75 43 43 33 37 31 27 29 34 38 41 45 44 45 47
320 324 326 328 330 333 332 327 328 331 335 325 317 323 328 334 344 345 344 355 348 343 234 47 19 19 15 14 22 35 29 27 28 30 30 35 39 44
317 323 327 330 332 335 333 328 325 329 330 314 308 313 313 325 338 347 337 342 346 300 238 297 299 330 334 344 1 12 16 24 34 27 33 38 40 37
314 322 327 329 332 335 333 330 325 325 322 313 305 299 298 314 334 338 336 332 330 311 283 288 275 310 324 323 338 344 359 9 17 34 35 39 40 39
312 320 324 327 329 332 333 330 324 315 306 300 306 305 288 301 323 322 320 322 327 314 301 291 290 297 308 311 321 328 346 0 10 18 24 31 34 38
313 319 322 324 328 330 330 328 320 305 298 299 301 306 280 284 303 303 307 313 322 327 324 308 294 296 304 307 311 317 332 350 3 13 22 29 29 31
310 316 318 321 327 330 328 325 314 307 300 297 299 304 286 287 290 291 297 304 309 318 323 318 309 302 300 299 303 303 307 333 352 4 15 23 27 32
311 316 319 323 325 323 326 323 310 296 294 296 291 288 280 285 287 288 290 299 303 312 310 313 310 303 300 300 291 288 297 312 332 347 353 8 16 17
309 312 316 318 322 323 323 319 308 289 291 287 278 279 271 277 281 286 279 287 291 302 301 303 306 308 304 297 293 287 288 301 314 327 331 338 351 354
307 312 316 318 319 319 319 316 314 298 287 282 273 270 277 275 279 282 276 280 280 292 289 289 289 291 293 293 293 287 282 289 296 301 307 314 319 327
307 311 314 316 315 313 313 312 312 309 295 284 279 268 271 278 276 277 276 272 270 281 280 283 280 277 282 286 288 281 272 279 282 285 292 301 306 307
305 310 311 309 308 309 311 312 310 305 290 280 277 273 267 273 278 275 270 265 262 270 273 277 278 276 277 279 274 280 280 274 274 279 287 292 293 296
302 306 307 308 309 309 308 308 307 305 298 289 279 276 268 269 275 272 264 259 258 262 267 271 273 272 271 273 270 275 275 271 275 280 284 287 287 289
301 304 305 308 309 309 309 309 307 304 297 289 284 280 275 269 266 263 257 252 258 262 263 260 270 268 267 268 268 269 273 273 274 277 279 277 282 282
298 303 307 309 308 309 308 306 305 303 297 291 286 281 278 271 264 259 249 247 253 259 260 257 259 263 265 265 265 268 269 270 271 274 277 281 283 286